Weather in Dosang

Russia / Astrakhan Oblast     46°54′08″N   47°54′52″E
temp.,
°C
wind,
m/s
gust,
m/s
humid.,
%
clouds,
%
prec.,
mm/h
press.,
hPa
HPBL,
m
1 august, sun
sun101:00+25sse3449100 0.0 101181
04:00+24sse3449100 0.0 101166
07:00+25s234763 0.0 1012101
10:00+32se34295 0.0 1012944
13:00+36se45215 0.0 10112523
16:00+37e341951 0.0 10103446
19:00+34ssw673129 0.0 1010472
22:00+29ssw464019 0.1 101193
2 august, mon
mon201:00+27ssw454025 0.0 101192
04:00+25wsw224313 0.0 101117
07:00+28wsw113611 0.0 101251
10:00+34se231967 0.0 1012784
13:00+38se351328 0.0 10113182
16:00+39sse3411100 0.0 10104404
19:00+37sse6912100 0.0 1010525
22:00+31s4617100 0.0 1011100
3 august, tue
tue301:00+28s332367 0.0 101125
04:00+26ssw223370 0.0 101111
07:00+29wnw003243 0.0 101212
10:00+35se11165 0.0 1012593
13:00+40ese2494 0.0 10114019
16:00+41ne25836 0.0 10094896
19:00+39sw341293 0.0 1009612
22:00+31ssw47175 0.0 1010101
4 august, wed
wed401:00+29sw45210 0.0 101062
04:00+27sw44270 0.0 101050
07:00+28sw23300 0.0 101183
10:00+36ssw341517 0.0 1011720
13:00+40sw46925 0.0 10103647
16:00+41wsw55919 0.0 10094325
19:00+35nnw10112229 0.0 1009595
22:00+30w233210 0.0 101122
5 august, thu
thu501:00+29wnw57345 0.0 1011126
04:00+29n6113994 0.0 1011280
07:00+29nnw694394 0.0 1012466
10:00+28nnw101251100 0.0 1014763
13:00+27wsw1251100 0.2 1014422
16:00+32nnw5635100 0.2 10131663
19:00+32n76310 0.0 10121891
22:00+28n44335 0.0 101354